Hauptseite
METAR-TAF:

METAR-TAF

Flughäfen :

Flughafen Epinal-Mirecourt

Épinal, Frankreich

Breite: 48-19-31N, Länge: 6-04-00E, Höhe: 330 m

Beobachtung

Neuester Wetterbericht von vor 22 Minuten, um 04:00 UTC
Wind 4 kt aus Nord/Nordost
Temperatur -5°C
Luftfeuchtigkeit 93%
Luftdruck 1018 hPa
Sichtweite: 9000 m
Durchbrochene Bewölkung in der Höhe von 1100 ft

METAR: LFSG 210400Z AUTO 02004KT 9000 BKN011 M05/M06 Q1018

Zeit: 05:22 (04:22 UTC)


TAF: fehlend

Wetterbeobachtungen und Prognosen von mehr als 4000 Flughäfen (METAR und TAF Bericht).

Die verfügbaren Stationen werden durch gelbe und rote Markierungen auf der Karte dargestellt.

Führen Sie die Maus auf sie, um den Namen der Station zu sehen.

Darauf klicken, um die Beobachtung von Wetterbeobachtungen und Prognosen zu sehen.

Um die Karte zu ändern : klicken Sie auf den grünen Tasten mit einem schwarzen Kreuz Zum Vergrößern, auf den grünen Button mit einem Gedankenstrich zu verkleinern, oder auf die grünen Pfeile für benachbarte Karten.


METAR-TAF: